• MPC Preparation (Info)

  • MPEC 2020-T102 : 2020 TG3

    The following Minor Planet Electronic Circular may be linked-to from your own Web pages, but must not otherwise be redistributed electronically.

    A form allowing access to any MPEC is at the bottom of this page.


    Read MPEC 2020-T101 Read MPEC 2020-T103


    M.P.E.C. 2020-T102                             Issued 2020 October 12, 21:17 UT
    
         The Minor Planet Electronic Circulars contain information on unusual
             minor planets and routine data on comets.  They are published
        on behalf of Division F of the International Astronomical Union by the
              Minor Planet Center, Smithsonian Astrophysical Observatory,
                              Cambridge, MA 02138, U.S.A.
    
                 Prepared using the Tamkin Foundation Computer Network
    
                                  MPC@CFA.HARVARD.EDU
                URL https://www.minorplanetcenter.net/    ISSN 1523-6714
    
                                    2020 TG3                                 
    
    
    Observations:
         K20T03G  C2020 10 06.40009 01 01 17.02 +29 18 21.6          20.3 GVET102G96
         K20T03G  C2020 10 06.40739 01 01 17.48 +29 18 22.5          20.4 GVET102G96
         K20T03G  C2020 10 06.42203 01 01 18.37 +29 18 24.8          21.1 GVET102G96
         K20T03G* C2020 10 12.23683401 08 44.30 +29 28 15.9          20.81GVET102G96
         K20T03G  C2020 10 12.24199801 08 44.73 +29 28 16.2                VET102G96
         K20T03G  C2020 10 12.24716401 08 45.07 +29 28 16.0                VET102G96
         K20T03G  C2020 10 12.25232601 08 45.48 +29 28 16.0          20.39GVET102G96
         K20T03G KC2020 10 12.37571401 08 54.67 +29 28 11.1                VET102I52
         K20T03G KC2020 10 12.37908601 08 54.98 +29 28 11.1          20.28GVET102I52
         K20T03G KC2020 10 12.38240701 08 55.18 +29 28 11.7          20.85GVET102I52
         K20T03G  C2020 10 12.49864901 09 05.452+29 28 14.34         21.03wUET102F51
         K20T03G  C2020 10 12.51142801 09 06.413+29 28 13.32         20.97wUET102F51
         K20T03G  C2020 10 12.52416001 09 07.389+29 28 12.07         20.66wUET102F51
         K20T03G  C2020 10 12.53688801 09 08.373+29 28 10.97         20.73wUET102F51
         K20T03G hC2020 10 12.78489001 09 33.39 +29 27 45.4          20.6 GVET102L01
         K20T03G hC2020 10 12.82876201 09 37.03 +29 27 45.1          20.5 GVET102L01
         K20T03G hC2020 10 12.83383101 09 37.43 +29 27 45.2          20.3 GVET102L01
         K20T03G KC2020 10 12.83695201 09 37.70 +29 27 45.2          20.3 GVET102L01
    
    Observer details:
    F51 Pan-STARRS 1, Haleakala.  Observers J. Bulger, T. Lowe, A. Schultz, M.
        Willman.  Measurers K. Chambers, S. Chastel, T. de Boer, L. Denneau, J.
        Fairlamb, H. Flewelling, M. Huber, C.-C. Lin, E. Magnier, Y. Ramanjooloo,
        R. Wainscoat, R. Weryk.  1.8-m Ritchey-Chretien + CCD.
    G96 Mt. Lemmon Survey.  Observer T. A. Pruyne.  Measurers E. J. Christensen,
        B. Gray, D. Rankin, F. C. Shelly, G. A. Farneth, D. C. Fuls, A. R. Gibbs,
        A. D. Grauer, H. Groeller, R. A. Kowalski, S. M. Larson, G. J. Leonard, T.
        A. Pruyne, R. L. Seaman, K. W. Wierzchos.  1.5-m reflector + 10K CCD.
    I52 Steward Observatory, Mt. Lemmon Station.  Observer D. Rankin.  Measurers
        E. J. Christensen, G. A. Farneth, D. C. Fuls, A. R. Gibbs, A. D. Grauer,
        H. Groeller, R. A. Kowalski, S. M. Larson, G. J. Leonard, T. A. Pruyne, D.
        Rankin, R. L. Seaman, F. C. Shelly, K. W. Wierzchos.  1.0-m reflector +
        CCD.
    L01 Visnjan Observatory, Tican.  Observer K. Korlevic.  1.0-m f/2.9 reflector
        + CCD.
    
    Orbital elements:
    2020 TG3                                                 Earth MOID = 0.1072 AU
    Epoch 2020 Dec. 17.0 TT = JDT 2459200.5                 Veres
    M   3.11608              (2000.0)            P               Q
    n   0.20535184     Peri.  201.54655     +0.32614434     -0.93761863
    a   2.8453585      Node   229.63157     +0.88876708     +0.34753413
    e   0.6192082      Incl.    9.09398     +0.32206047     -0.00955686
    P   4.80           H   22.1           G   0.15           U   7
    Residuals in seconds of arc
    201006 G96  0.5-  0.3+    201012 G96  0.1+  0.1+    201012 F51  0.1+  0.1-
    201006 G96  0.0   0.1-    201012 I52  0.5-  0.6-    201012 F51  0.1+  0.0
    201006 G96  0.5+  0.2-    201012 I52  0.2+  0.4-    201012 L01  0.1-  0.3+
    201012 G96  0.2-  0.0     201012 I52  0.5-  0.5+    201012 L01  0.0   0.3-
    201012 G96  0.4+  0.3+    201012 F51  0.1+  0.1+    201012 L01  0.2-  0.1-
    201012 G96  0.2-  0.1+    201012 F51  0.0   0.1+    201012 L01  0.0   0.1-
    
    Ephemeris:
    2020 TG3                 a,e,i = 2.85, 0.62, 9                   q = 1.0835
    Date    TT    R. A. (2000) Decl.     Delta      r    Elong.  Phase     V
    2020 09 12    00 41 07.5 +25 52 39   0.5341  1.4732   144.2    23.5    22.7
    ...
    2020 09 27    00 52 21.4 +28 23 15   0.3938  1.3621   151.8    20.4    21.8
    ...
    2020 10 05    00 59 46.6 +29 12 53   0.3298  1.3068   155.2    18.7    21.2
    ...
    2020 10 11    01 06 59.0 +29 28 10   0.2864  1.2677   157.5    17.5    20.8
    2020 10 12    01 08 23.0 +29 28 22   0.2795  1.2614   157.9    17.3    20.7
    2020 10 13    01 09 51.2 +29 27 48   0.2728  1.2552   158.3    17.1    20.7
    ...
    2020 10 19    01 20 26.5 +29 05 37   0.2345  1.2197   160.5    15.8    20.2
    ...
    2020 10 27    01 41 13.4 +27 29 52   0.1894  1.1772   164.2    13.3    19.6
    ...
    2020 11 11    02 53 34.5 +18 17 20   0.1266  1.1165   177.1     2.6    18.1
    
    M. P. C. Staff               (C) Copyright 2020 MPC           M.P.E.C. 2020-T102
    


    Read MPEC 2020-T101 Read MPEC 2020-T103


    MPEC number:

    Enter an MPEC number in one of the following forms:

    • 1997-B01 (the full form)
    • J97B01 (the packed version of the full form)
    • B01 (the abbreviated form)